Location: El Corozo
(10.5833°N, 66.9667°W)
Time: 00:46:35
(UTC+00:00)

MOS 1-B - Pass Details

Date: 23 May 2024
Orbit: 904 x 912 km, 99.3° (Epoch: 15 June)

Event Time Altitude Azimuth Distance (km) Brightness Sun altitude
Exits shadow 00:58:57 76° 292° (WNW) 932 4.4 -30.6°
Drops below altitude 10° 01:04:25 10° 343° (NNW) 2,581 7.2 -31.7°
Sets 01:06:50 0° 345° (NNW) 3,521 8.0 -32.2°
